Greenwood, Nova Scotia

1:05 AM ADT on August 21, 2017 (GMT -0300)
Greenwood

Weather History for CYZX - July, 2013

Change the Weather History Date:

Monday, July 8, 2013

  Actual Average Record
Temperature  
Mean Temperature 65 °F -  
Max Temperature 70 °F 77 °F 89 °F (2008)
Min Temperature 60 °F 55 °F 32 °F (1996)
Growing Degree Days 15 (Base 50)    
Moisture  
Dew Point 62 °F    
Average Humidity 86    
Maximum Humidity 100    
Minimum Humidity 69    
Precipitation  
Precipitation 0.59 in 0.12 in - ()
Sea Level Pressure  
Sea Level Pressure 29.99 in    
Wind  
Wind Speed 3 mph ()    
Max Wind Speed 8 mph    
Max Gust Speed -    
Visibility 10.5 miles    
Events Rain    
Averages and records for this station are not official NWS values.
T = Trace of Precipitation, MM = Missing Value Source: Averaged Metar Reports

Daily Weather History Graph

Daily Weather History Graph

Search for Another Location

Airport or City:

Trip Planner

Search our weather history database for the weather conditions in past years. The results will help you decide how hot, cold, wet, or windy it might be!

Date:

Astronomy

Jul. 08, 2013 Rise Set
Actual Time 5:41 AM ADT 9:07 PM ADT
Civil Twilight 5:05 AM ADT 9:44 PM ADT
Nautical Twilight 4:16 AM ADT 10:31 PM ADT
Astronomical Twilight 3:15 AM ADT 11:32 PM ADT
Moon 6:11 AM ADT (7/8) 9:02 PM ADT (7/8)
Length of Visible Light 16h 39m
Length of Day
15h 25m
New Moon, 0% of the Moon is Illuminated
Jul 8
New Moon
Jul 16
First Quarter
Jul 22
Full
Jul 29
Last Quarter
Aug 6
New

Hourly Weather History & Observations

Time (ADT) Temp. Dew Point Humidity Pressure Visibility Wind Dir Wind Speed Gust Speed Precip Events Conditions
12:00 AM 73.4 °F 62.6 °F 69% 29.89 in 15.0 mi SW 6.9 mph - N/A   Partly Cloudy
1:00 AM 71.6 °F 62.6 °F 73% 29.89 in 15.0 mi WSW 5.8 mph - N/A   Scattered Clouds
2:00 AM 69.8 °F 62.6 °F 78% 29.90 in 15.0 mi SW 4.6 mph - N/A   Scattered Clouds
3:00 AM 70 °F 63 °F 71% 29.92 in 15 mi WSW 2.3 mph - -   Mostly Cloudy
3:00 AM 69.8 °F 62.6 °F 78% 29.92 in 15.0 mi WSW 3.5 mph - N/A   Mostly Cloudy
4:00 AM 69.8 °F 62.6 °F 78% 29.91 in 15.0 mi SW 3.5 mph - N/A   Mostly Cloudy
5:00 AM 68.0 °F 62.6 °F 83% 29.92 in 12.0 mi Calm Calm - N/A   Mostly Cloudy
6:00 AM 68.0 °F 64.4 °F 88% 29.93 in 12.0 mi North 2.3 mph - N/A   Overcast
7:00 AM 68.0 °F 62.6 °F 83% 29.95 in 12.0 mi South 3.5 mph - N/A   Overcast
8:00 AM 68.0 °F 62.6 °F 83% 29.97 in 12.0 mi West 2.3 mph - N/A   Overcast
8:13 AM - - N/A% - 10.0 mi Calm Calm - N/A Rain Light Rain Showers
9:00 AM 68 °F 63 °F 78% 29.99 in 10 mi NE 3.5 mph - - Rain Light Rain Showers
9:00 AM 68.0 °F 62.6 °F 83% 29.98 in 10.0 mi NNE 2.3 mph - N/A Rain Light Rain Showers
10:00 AM 66.2 °F 60.8 °F 83% 30.00 in 6.0 mi North 8.1 mph - N/A Rain Light Rain Showers
11:00 AM 60.8 °F 60.8 °F 100% 30.00 in 10.0 mi NNE 5.8 mph - N/A Rain Light Rain Showers
12:00 PM 62.6 °F 59.0 °F 88% 30.00 in 10.0 mi ENE 4.6 mph - N/A Rain Light Rain Showers
1:00 PM 62.6 °F 60.8 °F 94% 30.02 in 6.0 mi NNE 3.5 mph - N/A Rain Light Rain Showers
1:08 PM - - N/A% - 3.0 mi NE 2.3 mph - N/A Rain Light Rain Showers
1:16 PM - - N/A% - 2.0 mi East 2.3 mph - N/A Rain Rain Showers
1:37 PM - - N/A% - 5.0 mi ENE 2.3 mph - N/A Rain Light Rain Showers
2:00 PM 62.6 °F 60.8 °F 94% 30.02 in 6.0 mi Calm Calm - N/A Rain Light Rain Showers
2:13 PM - - N/A% - 8.0 mi Calm Calm - N/A Rain Light Rain Showers
3:00 PM 63 °F 62 °F 96% 30.03 in 7 mi North 3.5 mph - - Rain Light Rain Showers
3:00 PM 62.6 °F 62.6 °F 100% 30.02 in 8.0 mi North 3.5 mph - N/A Rain Light Rain Showers
3:22 PM - - N/A% - 5.0 mi NNE 2.3 mph - N/A Rain Light Rain Showers
4:00 PM 64.4 °F 62.6 °F 94% 30.02 in 6.0 mi ENE 2.3 mph - N/A Rain Light Rain Showers
4:28 PM - - N/A% - 8.0 mi Calm Calm - N/A Rain Light Rain Showers
5:00 PM 64.4 °F 62.6 °F 94% 30.02 in 10.0 mi Calm Calm - N/A Rain Light Rain Showers
5:15 PM - - N/A% - 12.0 mi Calm Calm - N/A   Overcast
6:00 PM 66.2 °F 62.6 °F 88% 30.02 in 12.0 mi Calm Calm - N/A   Overcast
7:00 PM 66.2 °F 64.4 °F 94% 30.02 in 12.0 mi SE 2.3 mph - N/A   Mostly Cloudy
8:00 PM 68.0 °F 62.6 °F 83% 30.03 in 15.0 mi North 3.5 mph - N/A   Mostly Cloudy
9:00 PM 66 °F 63 °F 87% 30.04 in 15 mi NE 3.5 mph - -   Partly Cloudy
9:00 PM 66.2 °F 62.6 °F 88% 30.04 in 15.0 mi NE 2.3 mph - N/A   Mostly Cloudy
10:00 PM 64.4 °F 62.6 °F 94% 30.07 in 15.0 mi ENE 2.3 mph - N/A   Mostly Cloudy
11:00 PM 62.6 °F 60.8 °F 94% 30.08 in 15.0 mi Calm Calm - N/A   Scattered Clouds